COSMOS 2251 DEB, 38212

Orbit data source: Space-Track

COSMOS 2251 DEB, 38212 is space debris in LEO originally from a launch on Wed, 16 Jun 1993 UTC launched from the Plesetsk Missile And Space Complex (PKMTR). The debris from Iridium 33, an American commercial communications satellite, has been tracked extensively since its accidental collision with the defunct Russian satellite Cosmos 2251 in 2009. This event, occurring at high speed in low Earth orbit (LEO), generated thousands of pieces of space debris, significantly increasing the risk of further collisions. The Iridium 33 debris cloud has impacted space traffic management and orbital debris mitigation strategies, making it a subject of ongoing study in space situational awareness.

Loading next visibility...
Identifier
38212, 1993-036BTC
Orbit
LEO
Country
Flag of CISCIS
Related business
Manufacturer
Unknown
Mission
Spacecraft
Bus & Motor
Unknown
Mass
Unknown
Launch date (UTC)
1993-06-16 (33 years ago)
Launch vehicle
Unknown
Launch site
Plesetsk Missile And Space Complex (PKMTR)
Object type
Payload
Rocket body
Debris
Shape & HBR
Unknown shape, 0.1 m
Radar Cross Section
Small (<0.1 m²)

Expand to show TLE details & history
Last TLE update: 2 days ago

TLE from 2 days ago
0 COSMOS 2251 DEB
1 38212U 93036BTC 26173.94086524  .00002071  00000-0  26731-3 0  9996
2 38212  74.0500  59.3026 0090543  75.0409 286.0768 14.78816088841501
Epoch: 2026-06-22T22:34Z
TLE epoch observation values (Epoch: 2026-06-22T22:34:50.756Z)
Latitude
-0.00009°
Longitude
169.47152°
Altitude
618.678 km
Speed
7.559 km/s
True Right ascension
03h 57m 12s
True Declination
0° 00' 00"
Sunlit
Object was in daylight at epoch
Visualization orbit readout
Latitude
Unknown
Longitude
Unknown
Altitude
Unknown
Speed
Unknown
Apparent Right ascension
Unknown
Apparent Declination
Unknown
Sunlit
N/A
Visualization observer readout
Local Sidereal Time
03:14:06
Azimuth
Unknown
Elevation
Unknown
Doppler factor
Unknown
Orbital elements
Apogee altitude
694.099 km
Perigee altitude
567.179 km
Semi-major axis
7,008.776 km
Eccentricity
0.00905
Inclination
74.05°
RAAN
59.3026°
Arg. of periapsis
75.0409°
True anomaly
285.07675°
Mean anomaly
286.0768°
Eccentric anomaly
285.57708°
Mean motion
3.69896 °/min
Orbital period
97.32 mins
BSTAR
0.00026731
Loading maneuver chart data...
Computing Atmospheric mass density...

Documentation

Showing up to 5 results
|